Location: Helsinki
(60.1699°N, 24.9384°E)
Time: 11:11:47
(UTC+02:00)

Transit 2A Rocket - Pass Details

Date: 24 September 2023
Orbit: 593 x 903 km, 66.7° (Epoch: 06 December)

Event Time Altitude Azimuth Distance (km) Brightness Sun altitude
Rises 21:22:56 0° 295° (WNW) 3,124 10.0 -16.1°
Reaches altitude 10° 21:25:29 10° 302° (WNW) 2,152 8.7 -16.4°
Maximum altitude 21:30:06 42° 14° (NNE) 933 5.6 -16.9°
Enters shadow 21:32:41 22° 74° (ENE) 1,408 6.0 -17.1°
Drops below altitude 10° 21:34:23 10° 86° (E) 1,999 - -17.3°
Sets 21:36:41 0° 94° (E) 2,876 - -17.6°
